User: anonymous   Login
Location: Lower Kingswood
(51.2667°N, 0.2167°W)
Time: 21:57:35
(UTC+00:00)
Language:

ALOS - Orbit

View from above orbital plane
View from above orbital plane
View from above satellite
View from above satellite

Ground track
Ground track

The orbit data is extracted from the following two-line orbital elements,

1 28931U 06002A   24055.61076319  .00002129  00000-0  40442-3 0  9991
2 28931  98.0237  11.2425 0002080 109.6804 250.4624 14.65175996964349
Epoch (UTC): 24 February 2024 14:39:29
Eccentricity: 0.0002080
inclination: 98.0237°
perigee height: 675 km
apogee height: 678 km
right ascension of ascending node: 11.2425°
argument of perigee: 109.6804°
revolutions per day: 14.65175996
mean anomaly at epoch: 250.4624°
orbit number at epoch: 96434

The dashed part of the orbit path shows where the satellite is in the earth's shadow,  

DLR